Location: Lafig�re
(44.4503°N, 4.0357°E)
Time: 16:25:30
(UTC+00:00)

deb Explorer IX - Pass Details

Date: 26 January 2021
Orbit: 537 x 1102 km, 38.8° (Epoch: 04 March)

Event Time Altitude Azimuth Distance (km) Brightness Sun altitude
Rises 17:17:20 0° 244° (WSW) 3,792 ? -6.2°
Reaches altitude 10° 17:20:17 10° 238° (WSW) 2,774 ? -6.7°
Maximum altitude 17:26:34 44° 169° (S) 1,237 ? -7.7°
Drops below altitude 10° 17:32:02 10° 99° (E) 2,412 ? -8.6°
Enters shadow 17:32:31 - 97° (E) 2,574 ? -8.7°
Sets 17:34:27 0° 92° (E) 3,254 - -9.1°
